• In Belarus
  • List of Countries
  • For 7 days
  • Water Temperature
  • Satellite Maps
  • Weather Map
  • Weather Widgets
  • user-avatar
    Login

    Hourly Weather Annaba

    Today, 19 September, Tuesday

    Time Temperature Precipitation Wind Pressure Humidity
    00:00 +23°C° 0 mm 4 mps 761 mmHg 73%
    01:00 +23°C° 0 mm 5 mps 761 mmHg 77%
    02:00 +23°C° 0.2 mm 5 mps 761 mmHg 78%
    03:00 +22°C° 0.2 mm 5 mps 761 mmHg 78%
    04:00 +22°C° 0.2 mm 5 mps 761 mmHg 78%
    05:00 +22°C° 0.4 mm 5 mps 761 mmHg 79%
    06:00 +22°C° 0.4 mm 5 mps 761 mmHg 80%
    07:00 +22°C° 0 mm 5 mps 761 mmHg 80%
    08:00 +23°C° 0.1 mm 5 mps 762 mmHg 74%
    09:00 +25°C° 0.1 mm 5 mps 762 mmHg 67%
    10:00 +25°C° 0.1 mm 5 mps 762 mmHg 61%
    11:00 +26°C° 0 mm 5 mps 762 mmHg 56%
    12:00 +27°C° 0 mm 5 mps 762 mmHg 52%
    13:00 +28°C° 0 mm 5 mps 762 mmHg 45%
    14:00 +28°C° 0 mm 5 mps 762 mmHg 46%
    15:00 +27°C° 0 mm 5 mps 762 mmHg 47%
    16:00 +27°C° 0 mm 6 mps 762 mmHg 48%
    17:00 +26°C° 0 mm 5 mps 762 mmHg 53%
    18:00 +25°C° 0 mm 4 mps 762 mmHg 58%
    19:00 +22°C° 0 mm 4 mps 763 mmHg 62%
    20:00 +22°C° 0 mm 3 mps 763 mmHg 65%
    21:00 +21°C° 0 mm 3 mps 763 mmHg 67%
    22:00 +21°C° 0 mm 3 mps 763 mmHg 70%
    23:00 +21°C° 0.1 mm 3 mps 763 mmHg 72%

    Tomorrow, 20 September, Wednesday

    Time Temperature Precipitation Wind Pressure Humidity
    00:00 +20°C° 0.1 mm 3 mps 763 mmHg 73%
    01:00 +20°C° 0.1 mm 3 mps 763 mmHg 75%
    02:00 +20°C° 0.4 mm 3 mps 763 mmHg 76%
    03:00 +20°C° 0.4 mm 3 mps 763 mmHg 78%
    04:00 +19°C° 0.4 mm 3 mps 763 mmHg 79%
    05:00 +20°C° 0.2 mm 4 mps 763 mmHg 79%
    06:00 +20°C° 0.2 mm 4 mps 763 mmHg 78%
    07:00 +20°C° 0.2 mm 4 mps 763 mmHg 78%
    08:00 +21°C° 0.1 mm 4 mps 763 mmHg 72%
    09:00 +22°C° 0.1 mm 4 mps 764 mmHg 66%
    10:00 +23°C° 0.1 mm 4 mps 764 mmHg 60%
    11:00 +25°C° 0 mm 4 mps 764 mmHg 55%
    12:00 +26°C° 0 mm 4 mps 764 mmHg 51%
    13:00 +27°C° 0 mm 4 mps 764 mmHg 46%
    14:00 +27°C° 0 mm 4 mps 764 mmHg 46%
    15:00 +27°C° 0 mm 4 mps 764 mmHg 45%
    16:00 +27°C° 0 mm 4 mps 763 mmHg 44%
    17:00 +25°C° 0 mm 4 mps 763 mmHg 49%
    18:00 +24°C° 0 mm 3 mps 763 mmHg 53%
    19:00 +23°C° 0 mm 2 mps 763 mmHg 57%
    20:00 +21°C° 0 mm 2 mps 764 mmHg 59%
    21:00 +21°C° 0 mm 2 mps 764 mmHg 62%
    22:00 +21°C° 0 mm 1 mps 764 mmHg 64%
    23:00 +21°C° 0 mm 1 mps 764 mmHg 65%

    Day after tomorrow, 21 September, Thursday

    Time Temperature Precipitation Wind Pressure Humidity
    00:00 +21°C° 0 mm 1 mps 764 mmHg 65%
    01:00 +20°C° 0 mm 2 mps 764 mmHg 66%
    02:00 +20°C° 0 mm 2 mps 764 mmHg 66%
    03:00 +20°C° 0 mm 2 mps 763 mmHg 67%
    04:00 +19°C° 0 mm 2 mps 763 mmHg 67%
    05:00 +20°C° 0 mm 2 mps 763 mmHg 67%
    06:00 +20°C° 0 mm 2 mps 763 mmHg 66%
    07:00 +20°C° 0 mm 3 mps 763 mmHg 66%
    08:00 +22°C° 0 mm 3 mps 763 mmHg 59%
    09:00 +25°C° 0 mm 3 mps 763 mmHg 51%
    10:00 +27°C° 0 mm 3 mps 763 mmHg 44%
    11:00 +29°C° 0 mm 3 mps 763 mmHg 40%
    12:00 +30°C° 0 mm 4 mps 762 mmHg 37%
    13:00 +33°C° 0 mm 4 mps 762 mmHg 33%
    14:00 +32°C° 0 mm 5 mps 761 mmHg 34%
    15:00 +32°C° 0 mm 5 mps 761 mmHg 36%
    16:00 +32°C° 0 mm 5 mps 760 mmHg 37%
    17:00 +29°C° 0 mm 5 mps 761 mmHg 43%
    18:00 +28°C° 0 mm 5 mps 761 mmHg 50%
    19:00 +26°C° 0 mm 4 mps 761 mmHg 57%
    20:00 +25°C° 0 mm 4 mps 761 mmHg 59%
    21:00 +25°C° 0 mm 4 mps 762 mmHg 61%
    22:00 +24°C° 0 mm 3 mps 762 mmHg 63%
    23:00 +24°C° 0 mm 3 mps 762 mmHg 62%

    22 September, Friday

    Time Temperature Precipitation Wind Pressure Humidity
    00:00 +24°C° 0 mm 3 mps 761 mmHg 61%
    01:00 +24°C° 0 mm 3 mps 761 mmHg 60%
    02:00 +24°C° 0 mm 2 mps 761 mmHg 58%
    03:00 +24°C° 0 mm 2 mps 761 mmHg 57%
    04:00 +24°C° 0 mm 2 mps 760 mmHg 55%
    05:00 +24°C° 0 mm 2 mps 760 mmHg 54%
    06:00 +24°C° 0 mm 2 mps 761 mmHg 53%
    07:00 +24°C° 0 mm 3 mps 761 mmHg 51%
    08:00 +27°C° 0 mm 2 mps 761 mmHg 45%
    09:00 +29°C° 0 mm 2 mps 761 mmHg 39%
    10:00 +32°C° 0 mm 2 mps 761 mmHg 33%
    11:00 +34°C° 0 mm 3 mps 761 mmHg 31%
    12:00 +35°C° 0 mm 3 mps 761 mmHg 29%
    13:00 +36°C° 0 mm 4 mps 761 mmHg 27%
    14:00 +36°C° 0 mm 4 mps 760 mmHg 29%
    15:00 +35°C° 0 mm 5 mps 760 mmHg 31%
    16:00 +35°C° 0 mm 5 mps 760 mmHg 33%
    17:00 +33°C° 0 mm 5 mps 760 mmHg 39%
    18:00 +30°C° 0 mm 4 mps 760 mmHg 46%
    19:00 +28°C° 0 mm 4 mps 760 mmHg 52%
    20:00 +28°C° 0 mm 3 mps 761 mmHg 56%
    21:00 +27°C° 0 mm 3 mps 761 mmHg 59%
    22:00 +27°C° 0 mm 2 mps 762 mmHg 63%
    23:00 +26°C° 0 mm 2 mps 761 mmHg 63%

    23 September, Saturday

    Time Temperature Precipitation Wind Pressure Humidity
    00:00 +26°C° 0 mm 2 mps 761 mmHg 63%
    01:00 +26°C° 0 mm 1 mps 761 mmHg 63%
    02:00 +26°C° 0 mm 1 mps 761 mmHg 63%
    03:00 +26°C° 0 mm 1 mps 761 mmHg 62%
    04:00 +26°C° 0 mm 1 mps 761 mmHg 61%
    05:00 +26°C° 0 mm 1 mps 761 mmHg 60%
    06:00 +26°C° 0 mm 2 mps 761 mmHg 58%
    07:00 +26°C° 0 mm 2 mps 761 mmHg 57%
    08:00 +28°C° 0 mm 2 mps 761 mmHg 51%
    09:00 +30°C° 0 mm 2 mps 761 mmHg 46%
    10:00 +32°C° 0 mm 2 mps 762 mmHg 41%
    11:00 +32°C° 0 mm 2 mps 761 mmHg 39%
    12:00 +33°C° 0 mm 3 mps 761 mmHg 37%
    13:00 +34°C° 0 mm 3 mps 761 mmHg 35%
    14:00 +34°C° 0 mm 3 mps 760 mmHg 33%
    15:00 +35°C° 0 mm 3 mps 760 mmHg 32%
    16:00 +35°C° 0 mm 3 mps 760 mmHg 30%
    17:00 +34°C° 0 mm 3 mps 760 mmHg 35%
    18:00 +32°C° 0 mm 4 mps 760 mmHg 39%
    19:00 +30°C° 0 mm 5 mps 760 mmHg 44%
    20:00 +29°C° 0 mm 4 mps 760 mmHg 47%
    21:00 +28°C° 0 mm 4 mps 760 mmHg 51%
    22:00 +28°C° 0 mm 3 mps 760 mmHg 54%
    23:00 +27°C° 0 mm 3 mps 760 mmHg 53%

    24 September, Sunday

    Time Temperature Precipitation Wind Pressure Humidity
    00:00 +27°C° 0 mm 3 mps 760 mmHg 53%
    01:00 +27°C° 0 mm 2 mps 759 mmHg 52%
    02:00 +27°C° 0 mm 2 mps 759 mmHg 51%
    03:00 +27°C° 0 mm 2 mps 759 mmHg 50%
    04:00 +26°C° 0 mm 2 mps 758 mmHg 48%
    05:00 +26°C° 0 mm 2 mps 759 mmHg 50%
    06:00 +26°C° 0 mm 3 mps 759 mmHg 51%
    07:00 +26°C° 0 mm 3 mps 759 mmHg 53%
    08:00 +28°C° 0 mm 3 mps 759 mmHg 50%
    09:00 +30°C° 0 mm 3 mps 759 mmHg 48%
    10:00 +32°C° 0 mm 4 mps 759 mmHg 45%
    11:00 +32°C° 0.1 mm 4 mps 759 mmHg 47%
    12:00 +32°C° 0.1 mm 4 mps 759 mmHg 50%
    13:00 +32°C° 0.1 mm 5 mps 759 mmHg 52%
    14:00 +32°C° 0.9 mm 5 mps 760 mmHg 55%
    15:00 +30°C° 0.9 mm 5 mps 760 mmHg 59%
    16:00 +29°C° 0.9 mm 5 mps 760 mmHg 62%
    17:00 +28°C° 0.2 mm 4 mps 760 mmHg 67%
    18:00 +27°C° 0.2 mm 4 mps 761 mmHg 72%
    19:00 +25°C° 0.2 mm 3 mps 761 mmHg 77%
    20:00 +25°C° 0 mm 3 mps 761 mmHg 80%
    21:00 +24°C° 0 mm 2 mps 762 mmHg 83%
    22:00 +24°C° 0 mm 2 mps 762 mmHg 86%
    23:00 +24°C° 0 mm 2 mps 762 mmHg 86%
    Show more